Weather History for KADG - February, 2014

Change the Weather History Date:

Saturday, February 1, 2014

  Actual Average Record
Temperature  
Mean Temperature 30 °F -  
Max Temperature 35 °F 33 °F 56 °F (1968)
Min Temperature 26 °F 16 °F -11 °F (1985)
Degree Days  
Heating Degree Days 34    
Moisture  
Dew Point 29 °F    
Average Humidity 95    
Maximum Humidity 100    
Minimum Humidity 86    
Precipitation  
Precipitation 0.30 in - - ()
Sea Level Pressure  
Sea Level Pressure 29.94 in    
Wind  
Wind Speed 5 mph (South)    
Max Wind Speed 12 mph    
Max Gust Speed -    
Visibility 2 miles    
Events Fog , Rain , Snow    
Averages and records for this station are not official NWS values.
T = Trace of Precipitation, MM = Missing Value Source: NWS Daily Summary

Daily Weather History Graph

Daily Weather History Graph

Search for Another Location

Airport or City:

Trip Planner

Search our weather history database for the weather conditions in past years. The results will help you decide how hot, cold, wet, or windy it might be!

Date:

Astronomy

Feb. 01, 2014 Rise Set
Actual Time 7:48 AM EST 5:51 PM EST
Civil Twilight 7:19 AM EST 6:21 PM EST
Nautical Twilight 6:45 AM EST 6:54 PM EST
Astronomical Twilight 6:13 AM EST 7:27 PM EST
Moon 8:35 AM EST (2/1) 8:28 PM EST (2/1)
Length of Visible Light 11h 01m
Length of Day
10h 02m
Waxing Crescent, 5% of the Moon is Illuminated
Feb 1
Waxing Crescent
Feb 6
First Quarter
Feb 14
Full
Feb 22
Last Quarter
Mar 1
New

Hourly Weather History & Observations

Time (EST) Temp. Windchill Dew Point Humidity Pressure Visibility Wind Dir Wind Speed Gust Speed Precip Events Conditions
12:44 AM 26.6 °F - 24.8 °F 93% 30.12 in 1.8 mi Calm Calm - 0.00 in Snow Light Snow
12:53 AM 26.1 °F - 25.0 °F 96% 30.15 in 1.8 mi Calm Calm - 0.00 in Snow Light Snow
1:11 AM 26.6 °F - 24.8 °F 93% 30.10 in 1.8 mi Calm Calm - 0.00 in Snow Light Snow
1:20 AM 26.6 °F - 24.8 °F 93% 30.10 in 2.0 mi Calm Calm - 0.00 in Snow Light Snow
2:18 AM 26.6 °F 22.6 °F 24.8 °F 93% 30.10 in 1.8 mi East 3.5 mph - 0.00 in Snow Light Snow
2:43 AM 26.6 °F 21.2 °F 24.8 °F 93% 30.10 in 2.5 mi East 4.6 mph - 0.00 in Snow Light Snow
2:53 AM 27.0 °F 23.0 °F 25.0 °F 92% 30.14 in 3.0 mi East 3.5 mph - 0.00 in Snow Light Snow
3:00 AM 26.6 °F 21.2 °F 24.8 °F 93% 30.10 in 3.0 mi East 4.6 mph - 0.00 in   Overcast
3:26 AM 26.6 °F 22.6 °F 24.8 °F 93% 30.10 in 3.0 mi East 3.5 mph - 0.00 in   Overcast
3:53 AM 26.1 °F 18.4 °F 24.1 °F 92% 30.12 in 3.0 mi ESE 6.9 mph - 0.00 in Snow Light Snow
4:15 AM 26.6 °F 20.0 °F 24.8 °F 93% 30.08 in 4.0 mi ESE 5.8 mph - 0.00 in   Overcast
4:23 AM 26.6 °F 20.0 °F 24.8 °F 93% 30.07 in 4.0 mi ESE 5.8 mph - 0.00 in   Overcast
4:53 AM 26.1 °F 20.5 °F 25.0 °F 96% 30.11 in 4.0 mi SE 4.6 mph - 0.00 in   Overcast
5:53 AM 27.0 °F 19.5 °F 25.0 °F 92% 30.05 in 2.5 mi East 6.9 mph - N/A   Overcast
6:53 AM 27.0 °F 18.0 °F 26.1 °F 96% 30.05 in 2.0 mi ESE 9.2 mph - N/A   Overcast
7:53 AM 28.0 °F 20.8 °F 27.0 °F 96% 30.04 in 2.0 mi ESE 6.9 mph - 0.00 in Snow Light Snow
8:03 AM 28.4 °F 21.2 °F 26.6 °F 93% 30.00 in 1.8 mi SE 6.9 mph - 0.00 in Snow Light Snow
8:19 AM 28.4 °F 21.2 °F 26.6 °F 93% 30.01 in 0.8 mi SE 6.9 mph - 0.00 in Snow Light Snow
8:33 AM 28.4 °F 20.4 °F 28.4 °F 100% 30.00 in 0.2 mi SE 8.1 mph - 0.01 in Fog , Snow Snow
8:53 AM 28.9 °F 20.4 °F 28.0 °F 96% 30.02 in 0.2 mi ESE 9.2 mph - 0.01 in Fog , Snow Snow
9:24 AM 28.4 °F 20.4 °F 28.4 °F 100% 29.97 in 0.5 mi ESE 8.1 mph - 0.02 in Fog , Snow Snow
9:53 AM 30.0 °F 23.2 °F 28.9 °F 96% 29.99 in 0.5 mi ESE 6.9 mph - 0.04 in Fog , Snow Snow
10:12 AM 30.2 °F 22.6 °F 28.4 °F 93% 29.95 in 0.5 mi ESE 8.1 mph - 0.00 in Fog , Snow Snow
10:53 AM 30.9 °F 26.2 °F 28.9 °F 92% 29.98 in 0.5 mi East 4.6 mph - 0.03 in Fog , Snow Snow
11:11 AM 30.2 °F - 30.2 °F 100% 29.94 in 1.0 mi Calm Calm - 0.00 in Snow Light Snow
11:27 AM 30.2 °F 26.7 °F 28.4 °F 93% 29.94 in 0.8 mi SSE 3.5 mph - 0.01 in Snow Light Snow
11:53 AM 32.0 °F 27.5 °F 30.0 °F 92% 29.95 in 1.2 mi SE 4.6 mph - 0.03 in   Overcast
12:13 PM 32.0 °F 25.6 °F 30.2 °F 93% 29.89 in 1.5 mi SSE 6.9 mph - 0.02 in Rain Light Freezing Rain
12:53 PM 33.1 °F 24.4 °F 32.0 °F 96% 29.85 in 1.0 mi SSE 11.5 mph - 0.06 in Rain Light Freezing Rain
1:01 PM 33.8 °F 27.0 °F 32.0 °F 93% 29.81 in 1.2 mi SSE 8.1 mph - 0.01 in Rain Light Freezing Rain
1:33 PM 33.8 °F 27.0 °F 33.8 °F 100% 29.81 in 1.5 mi SSW 8.1 mph - 0.02 in Rain Light Rain
1:43 PM 33.8 °F 27.7 °F 33.8 °F 100% 29.81 in 1.8 mi SSW 6.9 mph - 0.02 in Rain Light Freezing Rain
1:53 PM 34.0 °F 28.0 °F 33.1 °F 96% 29.85 in 1.8 mi SSW 6.9 mph - 0.03 in Rain Light Freezing Rain
2:04 PM 33.8 °F 28.6 °F 33.8 °F 100% 29.81 in 2.0 mi SW 5.8 mph - 0.00 in Rain Light Rain
2:33 PM 33.8 °F 26.4 °F 33.8 °F 100% 29.80 in 2.0 mi SW 9.2 mph - 0.03 in Rain Rain
2:53 PM 34.0 °F 28.0 °F 33.1 °F 96% 29.83 in 1.8 mi SW 6.9 mph - 0.06 in Rain Light Rain
3:06 PM 33.8 °F 27.7 °F 33.8 °F 100% 29.79 in 1.5 mi SW 6.9 mph - 0.01 in Rain Light Rain
3:12 PM 33.8 °F 27.7 °F 33.8 °F 100% 29.79 in 1.8 mi SSW 6.9 mph - 0.01 in Rain Light Rain
3:26 PM 33.8 °F 27.7 °F 33.8 °F 100% 29.79 in 1.5 mi SW 6.9 mph - 0.02 in Rain Light Rain
3:33 PM 33.8 °F 27.7 °F 33.8 °F 100% 29.80 in 1.8 mi SW 6.9 mph - 0.02 in Rain Light Rain
3:48 PM 35.6 °F 29.9 °F 33.8 °F 93% 29.79 in 1.5 mi WSW 6.9 mph - 0.03 in Rain Light Rain
3:53 PM 34.0 °F 28.8 °F 34.0 °F 100% 29.83 in 1.5 mi WSW 5.8 mph - 0.03 in Rain Light Rain
4:53 PM 35.1 °F 32.2 °F 34.0 °F 96% 29.84 in 1.2 mi West 3.5 mph - 0.00 in Rain Light Rain
5:45 PM 35.6 °F 31.7 °F 33.8 °F 93% 29.82 in 2.0 mi WSW 4.6 mph - 0.00 in   Overcast
5:53 PM 35.1 °F 31.0 °F 34.0 °F 96% 29.85 in 2.5 mi WSW 4.6 mph - 0.00 in Rain Light Rain
6:06 PM 35.6 °F 30.7 °F 33.8 °F 93% 29.82 in 3.0 mi West 5.8 mph - 0.00 in Rain Light Rain
6:38 PM 35.6 °F 32.8 °F 33.8 °F 93% 29.82 in 2.5 mi WNW 3.5 mph - 0.00 in Rain Light Rain
6:53 PM 34.0 °F 31.0 °F 34.0 °F 100% 29.87 in 2.5 mi West 3.5 mph - 0.00 in Rain Light Rain
7:08 PM 33.8 °F 30.8 °F 33.8 °F 100% 29.85 in 3.0 mi WNW 3.5 mph - 0.00 in Rain Light Rain
7:46 PM 33.8 °F 29.6 °F 33.8 °F 100% 29.87 in 2.5 mi WNW 4.6 mph - 0.00 in Snow Light Snow
7:53 PM 33.1 °F 28.7 °F 32.0 °F 96% 29.90 in 2.0 mi NW 4.6 mph - 0.00 in Snow Light Snow
7:59 PM 33.8 °F 30.8 °F 32.0 °F 93% 29.87 in 1.8 mi NW 3.5 mph - 0.01 in Snow Light Snow
8:24 PM 33.8 °F 29.6 °F 32.0 °F 93% 29.88 in 2.0 mi NW 4.6 mph - 0.01 in Snow Light Snow
8:30 PM 33.8 °F 30.8 °F 32.0 °F 93% 29.88 in 1.8 mi NNW 3.5 mph - 0.01 in Snow Light Snow
8:53 PM 33.1 °F 27.7 °F 30.9 °F 92% 29.93 in 1.8 mi North 5.8 mph - 0.01 in Snow Light Snow
9:10 PM 32.0 °F 23.0 °F 30.2 °F 93% 29.90 in 1.5 mi North 11.5 mph - 0.00 in Snow Light Snow
9:44 PM 30.2 °F 21.3 °F 28.4 °F 93% 29.92 in 2.0 mi NNW 10.4 mph - 0.00 in Snow Light Snow
9:53 PM 30.0 °F 21.1 °F 28.0 °F 92% 29.95 in 2.0 mi NNW 10.4 mph - 0.00 in Snow Light Snow
10:11 PM 30.2 °F 21.9 °F 28.4 °F 93% 29.92 in 2.5 mi North 9.2 mph - 0.00 in Snow Light Snow
10:53 PM 28.0 °F 20.0 °F 26.1 °F 92% 29.98 in 2.5 mi North 8.1 mph - 0.00 in Snow Light Snow
11:12 PM 28.4 °F 20.4 °F 24.8 °F 86% 29.95 in 3.0 mi North 8.1 mph - 0.00 in Snow Light Snow
11:21 PM 28.4 °F 20.4 °F 24.8 °F 86% 29.95 in 4.0 mi North 8.1 mph - 0.00 in Snow Light Snow
11:53 PM 27.0 °F 18.0 °F 24.1 °F 89% 29.99 in 6.0 mi North 9.2 mph - 0.00 in   Overcast